Regional Weather Roundup
Issued by NWS

Home | Current Version | Previous Version | Graphics & Text | Print | Product List | Glossary Off
Versions: 1 2 3 4 5 6 7 8 9 10 11 12 13 14 15 16 17 18 19 20 21 22 23 24 25 26 27 28 29 30 31 32 33 34 35 36 37 38 39 40 41 42 43 44 45 46 47 48 49 50

000
ASUS43 KMKX 010100
RWRWI

WISCONSIN REGIONAL WEATHER ROUNDUP
NATIONAL WEATHER SERVICE MILWAUKEE/SULLIVAN WI
800 PM CDT TUE MAY 31 2016

NOTE: "FAIR" INDICATES FEW OR NO CLOUDS BELOW 12,000 FEET WITH NO
SIGNIFICANT WEATHER AND/OR OBSTRUCTIONS TO VISIBILITY.

WIZ001-002-006>008-014>016-023>028-010200-
NORTHWEST WISCONSIN

CITY           SKY/WX    TMP DP  RH WIND       PRES   REMARKS
SUPERIOR ARPT  CLOUDY    42  41  95 NE10G16   29.92S
ASHLAND        LGT RAIN  47  46  97 NE9       29.89F
HAYWARD        CLOUDY    63  60  90 SE9       29.87S
SIREN          CLOUDY    69  60  73 S3        29.85S
CUMBERLAND     DRIZZLE   61  59  94 SE13      29.87R
RICE LAKE      CLOUDY    62  59  92 SE6       29.89R
CHETEK         CLOUDY    61  61  99 E5        29.88S
LADYSMITH      LGT RAIN  61  60  96 E8        29.93R
EAU CLAIRE     LGT RAIN  63  62  97 VRB3      29.87R
MENOMONIE      CLOUDY    64  63  99 E7        29.87F
NEW RICHMOND   CLOUDY    67  59  76 SW7       29.86S
OSCEOLA        CLOUDY    69  61  76 S8        29.87S
$$

WIZ003>005-009-010-017-018-010200-
NORTH CENTRAL WISCONSIN

CITY           SKY/WX    TMP DP  RH WIND       PRES   REMARKS
MANITOWISH WTR LGT RAIN  63  59  87 S8        29.94R
ARBOR VITAE    LGT RAIN  64  56  74 S8        29.94S
WOODRUFF       LGT RAIN  64  56  74 S8        29.94S
RHINELANDER    LGT RAIN  62  55  77 SE8       29.95F
EAGLE RIVER    LGT RAIN  62  52  68 SE7       29.95F
LAND O LAKES   CLOUDY    65  52  62 S7G16     29.96S
PHILLIPS       RAIN      60  59  99 S3        29.93F
TOMAHAWK       CLOUDY    62  55  76 CALM      29.94S
MEDFORD        RAIN      63  63  99 W7        29.93S
MERRILL        DRIZZLE   64  58  82 E5        29.94F
$$

WIZ029-030-035-036-043>047-010200-
CENTRAL WISCONSIN

CITY           SKY/WX    TMP DP  RH WIND       PRES   REMARKS
WAUSAU         CLOUDY    68  58  70 SE9       29.91S
MOSINEE        NOT AVBL
MARSHFIELD     LGT RAIN  67  62  84 S6        29.92R
STEVENS POINT  CLOUDY    66  59  78 SE10      29.94S
WAUPACA        CLOUDY    69  60  73 SE8       29.94F
WAUTOMA        CLOUDY   N/A N/A N/A SE5       29.93F
WISC RAPIDS    CLOUDY    68  59  73 SE6       29.93R
CAMP DOUGLAS   NOT AVBL
$$

WIZ011>013-019>022-031-037>040-048>050-010200-
NORTHEAST WISCONSIN

CITY           SKY/WX    TMP DP  RH WIND       PRES   REMARKS
ANTIGO         CLOUDY    62  56  83 SE8       29.97R
SHAWANO        DRIZZLE   65  57  75 CALM      29.97R
OCONTO         CLOUDY    62  57  86 E3        29.97S
STURGEON BAY   CLOUDY    61  48  63 E12       29.98F
GREEN BAY      CLOUDY    64  58  80 E8        29.96S
MANITOWOC      NOT AVBL
APPLETON       MOCLDY    66  57  72 S8        29.94S
CLINTONVILLE   CLOUDY    64  55  72 E5        29.94F
OSHKOSH        CLOUDY    66  60  81 S7        29.94S
$$

WIZ032>034-041-042-053>061-010200-
SOUTHWEST WISCONSIN

CITY           SKY/WX    TMP DP  RH WIND       PRES   REMARKS
LA CROSSE      LGT RAIN  64  63  96 SE8       29.90R
SPARTA         RAIN      61  61 100 E5        29.92F
VIROQUA        CLOUDY    63  62  97 CALM      29.92F VSB 1
BOSCOBEL       NOT AVBL
PRAIRIE DU CHI RAIN      65  63  93 NW3       29.91R
PLATTEVILLE    CLOUDY    70  64  81 SE9       29.91R
$$

WIZ056-057-062-063-064-067-068-010200-
SOUTH CENTRAL WISCONSIN

CITY           SKY/WX    TMP DP  RH WIND       PRES   REMARKS
REEDSBURG      CLOUDY    68  62  79 SE5       29.91S
BARABOO/DELLS  CLOUDY    68  59  72 S7        29.92S
LONE ROCK      NOT AVBL
MINERAL POINT  CLOUDY    68  63  83 SE8       29.92S
MADISON        CLOUDY    69  59  70 SE13      29.93R
MIDDLETON      CLOUDY    70  60  70 SE9       29.93R
WATERTOWN      CLOUDY    66  63  91 SE9       29.94R
MONROE         CLOUDY    66  61  82 SE12      29.94R
JANESVILLE     MOCLDY    68  61  77 SE8       29.93S
$$

WIZ051-052-058>065-066-070>072-010200-
SOUTHEAST WISCONSIN

CITY           SKY/WX    TMP DP  RH WIND       PRES   REMARKS
MILWAUKEE      CLOUDY    66  61  84 SE6       29.96F
WAUKESHA       CLOUDY    63  61  94 E3        29.97F
MILWAUKEE/TIMM CLOUDY    66  57  72 E7        29.96F
RACINE         CLOUDY    65  60  84 E7        29.98F
BURLINGTON     CLOUDY    64  61  90 E7        29.95F
KENOSHA        CLOUDY    67  61  81 E8        29.96F
FOND DU LAC    CLOUDY    66  60  81 S8        29.94F
SHEBOYGAN      CLOUDY    57  50  77 E7        29.98S
WEST BEND      CLOUDY    64  61  88 SE7       29.97F
JUNEAU         CLOUDY    65  60  85 SE8       29.95F
$$

LSZ147-162-010200-
LAKE SUPERIOR

STATION/POSITION TIME  TEMP    WIND        PRES    WAVE
                       AIR SEA DIR/SP/G            HT/PER
                 (UTC) (F)     (DEG/KT/KT) (MB)    (FT/S)
W MID LAKE BUOY  2350   41 38   60/ 17/ 19 1013.2F   4/ 5
DEVILS ISLAND    0000   42     120/  9/ 15 1014.5R
SAXON HARBOR     0000   49     340/  1/  2 1011.9F
$$

LMZ867-665-643>646-010200-
LAKE MICHIGAN

STATION/POSITION TIME  TEMP    WIND        PRES    WAVE
                       AIR SEA DIR/SP/G            HT/PER
                 (UTC) (F)     (DEG/KT/KT) (MB)    (FT/S)
CHAMBERS ISLAND  0000   63      80/  7/ 10 1015.6F
N MID LAKE BUOY  2350   53 48   80/ 10/ 10 1015.4F   1
NORTHPORT PIER   0000   57     140/  3/  5 1015.9S
SISTER BAY       0020   60     100/ 12/ 16   N/A
ALGOMA LAKESHORE 0017           50/ 11/ 15   N/A
KEWAUNEE LAKESHO 0000                      1015.1
SHEBOYGAN LAKESH 0000   52      30/  2/  3 1016.1F
PORT WASHINGTON  0000   55     100/  2/  3 1016.6S
S MID LAKE BUOY  2350   56 55  350/  8/ 10 1015.3F   1/ 3
KENOSHA   LAKESH 0000   64      90/  6/  6 1014.9F
$$

TC  - TEMPERATURE IN CELSIUS
VSB - VISIBILITY IN STATUTE MILES
WCI - WIND CHILL INDEX
HX  - HEAT INDEX





USA.gov is the U.S. government's official web portal to all federal, state and local government web resources and services.